2020-003E (45020 NORAD) Tracking and Keplerian Element Data

This shows tracking and keplerian element data for the satellite.

Feedback or suggestion? Click here.




ElementValue
Catalog45020
Name2020-003E
Epoch Orbit458
Epoch Day45.13507071
Epoch Year2020
RAAN113.0204
Inclination97.2165
Eccentricity0.0011529
Argument of Perigee358.8752
Mean Anonmoly1.2459
Mean Motion15.25797729
Decay Rate1.166E-05
L11 45020U 20003E 20045.13507071 .00001166 00000-0 48268-4 0 9997
L22 45020 97.2165 113.0204 0011529 358.8752 1.2459 15.25797729 4582



Live tracking and technical data element details for 2020-003E (NORAD 45020). 2020-003E can be tracked NOW for your location showing map with azimuth and elevation plus other details from your city location.







IsCatalogInMostPopularTable: catalog: 45020, numindb: 154
Update: records affected: 1



GetName: 45020 2020-003E

Hit Count: updated at: Sun, 28 May 2023 07:31:33 GMT